• In Belarus
  • List of Countries
  • For 7 days
  • Water Temperature
  • Satellite Maps
  • Weather Map
  • Weather Widgets
  • user-avatar
    Login

    Hourly Weather Skagen

    Today, 20 September, Thursday

    Time Temperature Precipitation Wind Pressure Humidity
    00:00 +14°C° 0.2 mm 11 mps 754 mmHg 80%
    01:00 +13°C° 0.2 mm 10 mps 754 mmHg 78%
    02:00 +13°C° 0 mm 11 mps 755 mmHg 77%
    03:00 +13°C° 0 mm 11 mps 755 mmHg 75%
    04:00 +12°C° 0 mm 11 mps 755 mmHg 74%
    05:00 +12°C° 0 mm 11 mps 755 mmHg 73%
    06:00 +12°C° 0 mm 11 mps 756 mmHg 73%
    07:00 +12°C° 0 mm 11 mps 756 mmHg 72%
    08:00 +13°C° 0.1 mm 11 mps 756 mmHg 71%
    09:00 +13°C° 0.1 mm 10 mps 756 mmHg 70%
    10:00 +14°C° 0.1 mm 10 mps 756 mmHg 68%
    11:00 +14°C° 0.2 mm 10 mps 756 mmHg 72%
    12:00 +13°C° 0.2 mm 10 mps 756 mmHg 76%
    13:00 +13°C° 0.2 mm 9 mps 756 mmHg 79%
    14:00 +13°C° 0.5 mm 9 mps 756 mmHg 79%
    15:00 +13°C° 0.5 mm 9 mps 756 mmHg 78%
    16:00 +13°C° 0.5 mm 9 mps 756 mmHg 77%
    17:00 +13°C° 0 mm 8 mps 756 mmHg 79%
    18:00 +12°C° 0 mm 7 mps 756 mmHg 81%
    19:00 +13°C° 0 mm 6 mps 756 mmHg 84%
    20:00 +13°C° 0.2 mm 6 mps 755 mmHg 86%
    21:00 +13°C° 0.2 mm 6 mps 755 mmHg 89%
    22:00 +13°C° 0.2 mm 6 mps 754 mmHg 92%
    23:00 +14°C° 1 mm 7 mps 753 mmHg 91%

    Tomorrow, 21 September, Friday

    Time Temperature Precipitation Wind Pressure Humidity
    00:00 +15°C° 1 mm 9 mps 752 mmHg 90%
    01:00 +14°C° 1 mm 10 mps 751 mmHg 89%
    02:00 +16°C° 0.1 mm 10 mps 750 mmHg 89%
    03:00 +16°C° 0.1 mm 11 mps 749 mmHg 89%
    04:00 +16°C° 0.1 mm 11 mps 748 mmHg 89%
    05:00 +16°C° 0 mm 11 mps 747 mmHg 88%
    06:00 +15°C° 0 mm 12 mps 746 mmHg 87%
    07:00 +15°C° 0 mm 12 mps 745 mmHg 86%
    08:00 +15°C° 0.1 mm 13 mps 744 mmHg 83%
    09:00 +17°C° 0.1 mm 13 mps 743 mmHg 81%
    10:00 +17°C° 0.1 mm 14 mps 742 mmHg 78%
    11:00 +15°C° 1 mm 15 mps 742 mmHg 75%
    12:00 +14°C° 1 mm 16 mps 742 mmHg 73%
    13:00 +14°C° 1 mm 17 mps 741 mmHg 70%
    14:00 +12°C° 0.1 mm 18 mps 741 mmHg 66%
    15:00 +12°C° 0.1 mm 19 mps 741 mmHg 63%
    16:00 +12°C° 0.1 mm 20 mps 742 mmHg 59%
    17:00 +11°C° 0.2 mm 19 mps 742 mmHg 65%
    18:00 +10°C° 0.2 mm 18 mps 742 mmHg 70%
    19:00 +10°C° 0.2 mm 18 mps 742 mmHg 75%
    20:00 +10°C° 0.4 mm 17 mps 743 mmHg 73%
    21:00 +10°C° 0.4 mm 17 mps 744 mmHg 72%
    22:00 +10°C° 0.4 mm 16 mps 745 mmHg 71%
    23:00 +10°C° 0.1 mm 16 mps 746 mmHg 69%

    Day after tomorrow, 22 September, Saturday

    Time Temperature Precipitation Wind Pressure Humidity
    00:00 +10°C° 0.1 mm 16 mps 747 mmHg 68%
    01:00 +9°C° 0.1 mm 15 mps 748 mmHg 67%
    02:00 +9°C° 0.1 mm 15 mps 748 mmHg 66%
    03:00 +9°C° 0.1 mm 15 mps 749 mmHg 65%
    04:00 +9°C° 0.1 mm 15 mps 750 mmHg 65%
    05:00 +9°C° 0 mm 14 mps 750 mmHg 66%
    06:00 +9°C° 0 mm 13 mps 751 mmHg 66%
    07:00 +9°C° 0 mm 12 mps 752 mmHg 67%
    08:00 +9°C° 0.3 mm 12 mps 752 mmHg 68%
    09:00 +10°C° 0.3 mm 12 mps 752 mmHg 70%
    10:00 +10°C° 0.3 mm 12 mps 752 mmHg 71%
    11:00 +10°C° 0.4 mm 12 mps 752 mmHg 69%
    12:00 +10°C° 0.4 mm 13 mps 752 mmHg 67%
    13:00 +12°C° 0.4 mm 13 mps 752 mmHg 66%
    14:00 +10°C° 0.3 mm 14 mps 752 mmHg 67%
    15:00 +10°C° 0.3 mm 15 mps 752 mmHg 69%
    16:00 +10°C° 0.3 mm 15 mps 751 mmHg 71%
    17:00 +10°C° 0.4 mm 15 mps 751 mmHg 71%
    18:00 +10°C° 0.4 mm 15 mps 751 mmHg 72%
    19:00 +10°C° 0.4 mm 15 mps 751 mmHg 72%
    20:00 +10°C° 0 mm 15 mps 752 mmHg 71%
    21:00 +10°C° 0 mm 15 mps 752 mmHg 70%
    22:00 +10°C° 0 mm 15 mps 752 mmHg 69%
    23:00 +10°C° 0 mm 15 mps 753 mmHg 69%

    23 September, Sunday

    Time Temperature Precipitation Wind Pressure Humidity
    00:00 +10°C° 0 mm 14 mps 753 mmHg 69%
    01:00 +10°C° 0 mm 14 mps 753 mmHg 69%
    02:00 +10°C° 0 mm 14 mps 754 mmHg 69%
    03:00 +10°C° 0 mm 13 mps 754 mmHg 69%
    04:00 +10°C° 0 mm 13 mps 754 mmHg 70%
    05:00 +9°C° 0 mm 12 mps 754 mmHg 70%
    06:00 +9°C° 0 mm 12 mps 754 mmHg 70%
    07:00 +9°C° 0 mm 11 mps 754 mmHg 70%
    08:00 +11°C° 0 mm 10 mps 755 mmHg 68%
    09:00 +11°C° 0 mm 9 mps 755 mmHg 66%
    10:00 +11°C° 0 mm 8 mps 755 mmHg 65%
    11:00 +11°C° 0 mm 8 mps 754 mmHg 64%
    12:00 +12°C° 0 mm 7 mps 754 mmHg 63%
    13:00 +12°C° 0 mm 7 mps 754 mmHg 63%
    14:00 +11°C° 0 mm 6 mps 754 mmHg 63%
    15:00 +11°C° 0 mm 6 mps 753 mmHg 64%
    16:00 +12°C° 0 mm 5 mps 753 mmHg 65%
    17:00 +12°C° 0 mm 4 mps 753 mmHg 65%
    18:00 +11°C° 0 mm 3 mps 752 mmHg 66%
    19:00 +10°C° 0 mm 2 mps 752 mmHg 67%
    20:00 +10°C° 0 mm 2 mps 752 mmHg 68%
    21:00 +10°C° 0 mm 2 mps 752 mmHg 69%
    22:00 +10°C° 0 mm 2 mps 751 mmHg 70%
    23:00 +10°C° 0 mm 3 mps 751 mmHg 70%

    24 September, Monday

    Time Temperature Precipitation Wind Pressure Humidity
    00:00 +10°C° 0 mm 4 mps 751 mmHg 70%
    01:00 +9°C° 0 mm 5 mps 752 mmHg 70%
    02:00 +9°C° 0 mm 7 mps 752 mmHg 70%
    03:00 +10°C° 0 mm 8 mps 753 mmHg 71%
    04:00 +9°C° 0 mm 10 mps 753 mmHg 72%
    05:00 +8°C° 0 mm 10 mps 754 mmHg 72%
    06:00 +8°C° 0 mm 11 mps 755 mmHg 73%
    07:00 +8°C° 0 mm 11 mps 755 mmHg 73%
    08:00 +8°C° 0 mm 11 mps 756 mmHg 69%
    09:00 +9°C° 0 mm 10 mps 757 mmHg 66%
    10:00 +9°C° 0 mm 10 mps 758 mmHg 62%
    11:00 +9°C° 0 mm 10 mps 758 mmHg 60%
    12:00 +10°C° 0 mm 9 mps 759 mmHg 58%
    13:00 +10°C° 0 mm 9 mps 760 mmHg 57%
    14:00 +11°C° 0 mm 8 mps 760 mmHg 54%
    15:00 +11°C° 0 mm 8 mps 761 mmHg 52%
    16:00 +11°C° 0 mm 7 mps 761 mmHg 49%
    17:00 +10°C° 0 mm 7 mps 761 mmHg 50%
    18:00 +10°C° 0 mm 6 mps 762 mmHg 51%
    19:00 +10°C° 0 mm 6 mps 762 mmHg 53%
    20:00 +9°C° 0 mm 6 mps 763 mmHg 53%
    21:00 +9°C° 0 mm 6 mps 763 mmHg 54%
    22:00 +9°C° 0 mm 6 mps 763 mmHg 54%
    23:00 +9°C° 0 mm 6 mps 764 mmHg 55%

    25 September, Tuesday

    Time Temperature Precipitation Wind Pressure Humidity
    00:00 +8°C° 0 mm 6 mps 764 mmHg 57%
    01:00 +8°C° 0 mm 6 mps 765 mmHg 58%
    02:00 +8°C° 0 mm 5 mps 765 mmHg 59%
    03:00 +8°C° 0 mm 5 mps 765 mmHg 60%
    04:00 +8°C° 0 mm 5 mps 766 mmHg 61%
    05:00 +8°C° 0 mm 5 mps 766 mmHg 62%
    06:00 +8°C° 0 mm 6 mps 766 mmHg 64%
    07:00 +8°C° 0 mm 6 mps 767 mmHg 65%
    08:00 +9°C° 0 mm 6 mps 767 mmHg 65%
    09:00 +11°C° 0 mm 7 mps 767 mmHg 65%
    10:00 +12°C° 0 mm 7 mps 767 mmHg 64%
    11:00 +12°C° 0 mm 7 mps 767 mmHg 62%
    12:00 +12°C° 0 mm 7 mps 768 mmHg 59%
    13:00 +14°C° 0 mm 7 mps 768 mmHg 57%
    14:00 +12°C° 0 mm 7 mps 768 mmHg 60%
    15:00 +12°C° 0 mm 7 mps 768 mmHg 62%
    16:00 +12°C° 0 mm 8 mps 768 mmHg 65%
    17:00 +12°C° 0 mm 8 mps 768 mmHg 66%
    18:00 +11°C° 0 mm 8 mps 768 mmHg 68%
    19:00 +11°C° 0 mm 9 mps 768 mmHg 69%
    20:00 +11°C° 0 mm 9 mps 768 mmHg 73%
    21:00 +11°C° 0 mm 9 mps 768 mmHg 76%
    22:00 +11°C° 0 mm 9 mps 768 mmHg 80%
    23:00 +11°C° 0 mm 9 mps 768 mmHg 81%
    Show more